Left ArrowRight Arrow

Hourly Observations for October 9, 2015

Temp ( °F °C ) Dew Point ( °F °C ) Humidity (%) Winds ( mph kmh ) Pressure ( in mb ) Visibility ( mi km ) Precip ( " mm )
12:53 am 00:53 Clear 79 26.1 69 20.6 72 72 E 3 6 29.92 1013 10 16 0.00 0.00
1:53 am 01:53 Clear 78 25.6 68 20 71 71 E 3 6 29.91 1013 10 16 0.00 0.00
2:53 am 02:53 Clear 79 26.1 68 20 69 69 Calm 29.90 1013 10 16 0.00 0.00
3:53 am 03:53 Clear 77 25 68 20 74 74 ENE 3 6 29.90 1012 10 16 0.00 0.00
4:53 am 04:53 Clear 77 25 68 20 74 74 Calm 29.91 1013 10 16 0.01 0.25
5:53 am 05:53 Clear 76 24.4 67 19.4 74 74 E 5 7 29.92 1013 10 16 0.00 0.00
6:53 am 06:53 Sunny 77 25 69 20.6 77 77 ESE 7 11 29.95 1014 10 16 0.00 0.00
7:53 am 07:53 Sunny 82 27.8 70 21.1 67 67 Calm 29.96 1014 10 16 0.00 0.00
8:53 am 08:53 Sunny 84 28.9 71 21.7 65 65 WSW 5 7 29.97 1015 10 16 0.00 0.00
9:53 am 09:53 Sunny 84 28.9 72 22.2 67 67 WSW 7 11 29.97 1015 10 16 0.00 0.00
10:53 am 10:53 Sunny 85 29.4 72 22.2 65 65 W 7 11 29.97 1015 10 16 0.00 0.00
11:53 am 11:53 Sunny 85 29.4 73 22.8 68 68 W 7 11 29.96 1015 10 16 0.00 0.00
12:53 pm 12:53 Mostly Sunny 86 30 73 22.8 65 65 SW 8 13 29.94 1014 10 16 0.00 0.00
1:53 pm 13:53 Sunny 87 30.6 73 22.8 63 63 SW 9 15 29.93 1014 10 16 0.00 0.00
2:53 pm 14:53 Sunny 87 30.6 73 22.8 63 63 SSW 10 17 29.92 1013 10 16 0.00 0.00
3:53 pm 15:53 Mostly Sunny 87 30.6 72 22.2 61 61 S 10 17 29.92 1013 10 16 0.00 0.00
4:53 pm 16:53 Mostly Sunny 86 30 72 22.2 63 63 S 10 17 29.93 1014 10 16 0.00 0.00
5:53 pm 17:53 Mostly Sunny 84 28.9 71 21.7 65 65 S 9 15 29.94 1014 10 16 0.00 0.00
6:53 pm 18:53 Mostly Clear 84 28.9 72 22.2 67 67 S 8 13 29.96 1015 10 16 0.00 0.00
7:53 pm 19:53 Mostly Clear 83 28.3 72 22.2 70 70 S 6 9 29.98 1015 10 16 0.00 0.00
8:53 pm 20:53 Clear 82 27.8 72 22.2 72 72 Calm 30.01 1016 10 16 0.00 0.00
9:53 pm 21:53 Clear 81 27.2 72 22.2 74 74 Calm 30.01 1016 10 16 0.00 0.00
10:53 pm 22:53 Clear 81 27.2 72 22.2 74 74 ESE 5 7 30.02 1017 10 16 0.00 0.00
11:53 pm 23:53 Clear 80 26.7 72 22.2 76 76 E 3 6 30.02 1017 10 16 0.00 0.00

Powered by Vaisala Xweather